Temp
9 8 8 8 8 8 8 9 11 13 14 15 16 16 17 17 17 16 15 16 16 16 17 16 17 17 17 15 15 16 17 17 18 18 17 17 17 17 18 17 18 18 18 18 17 17 18
10 9 8 8 8 8 9 9 10 12 12 15 16 16 17 17 17 17 16 16 16 16 15 15 16 17 17 18 15 16 16 17 17 17 16 16 16 16 16 17 17 16 16 15 16 16 17
10 10 9 9 9 9 9 11 13 12 15 16 16 16 16 17 16 15 15 15 15 15 16 16 16 17 14 15 16 16 16 16 16 16 16 16 16 17 16 17 16 16 18 17 15 16 17
10 11 11 11 10 10 11 14 14 15 16 16 16 16 16 16 16 16 17 16 16 16 16 16 16 16 14 15 16 16 16 16 16 16 16 16 16 15 16 16 14 15 14 16 17 16 16
10 11 11 11 12 12 12 13 14 15 16 16 16 16 16 16 16 17 17 17 16 16 16 16 16 16 15 16 16 16 16 16 16 16 16 16 16 13 14 14 14 12 15 16 17 16 16
10 10 10 11 12 12 12 12 13 14 15 15 16 16 16 16 17 17 17 17 17 16 16 16 16 16 14 14 15 16 16 16 15 15 15 14 11 12 10 12 15 16 16 16 16 17 16
10 10 10 10 11 11 10 10 13 14 15 15 15 16 16 16 17 17 17 16 14 14 15 13 14 14 14 15 15 15 15 15 15 13 14 13 13 14 15 14 15 15 15 15 15 15 16
10 10 10 10 11 11 11 10 11 13 14 15 15 15 16 16 15 17 16 10 9 11 14 14 14 14 15 15 15 14 15 15 15 14 14 13 14 15 15 14 15 15 15 14 13 14 14
10 10 10 10 11 11 12 12 13 14 14 15 15 15 16 16 16 15 13 10 11 11 12 14 14 14 14 15 13 13 14 14 14 15 14 14 15 15 16 15 15 14 13 13 14 13 12
10 10 10 10 10 11 12 12 13 14 14 14 14 15 16 16 15 13 12 11 11 11 11 15 15 15 15 14 14 14 13 14 14 15 14 13 14 15 14 15 13 15 13 14 13 13 11
10 10 10 10 10 11 11 12 13 13 14 14 14 14 15 15 14 12 12 11 11 12 13 15 15 15 14 15 14 14 12 14 14 14 14 15 14 14 14 14 14 14 13 13 13 11 10
10 10 10 10 10 10 11 12 13 13 14 14 14 15 14 14 13 11 11 11 11 13 13 15 14 14 15 14 14 13 12 10 12 13 12 12 12 13 14 13 13 13 13 10 8 8 7
10 10 10 10 10 10 11 12 12 13 13 14 14 14 14 13 11 11 11 11 13 12 15 15 14 14 14 14 13 11 10 9 11 13 12 12 13 12 12 13 12 12 11 10 9 8 10
11 10 10 10 10 11 11 11 12 13 13 13 13 13 12 12 11 11 11 12 17 15 13 13 13 13 13 13 12 11 10 10 8 9 9 9 11 11 11 12 12 12 12 11 13 10 10
11 10 10 10 10 10 11 11 12 12 13 13 13 12 11 11 11 11 9 10 13 14 13 12 13 13 13 12 13 12 10 9 8 7 11 10 11 10 10 10 11 11 11 10 11 8 5
11 11 10 10 10 10 10 11 12 12 13 13 12 11 10 10 11 11 9 12 13 11 11 12 14 13 13 12 12 11 10 8 7 7 7 8 9 8 9 10 9 10 9 9 9 9 8
11 10 10 10 10 10 10 10 11 12 12 13 11 8 9 10 11 7 10 10 11 9 10 11 12 12 11 12 10 10 10 7 7 7 7 7 7 9 9 8 8 9 8 7 8 7 8
12 11 10 10 10 10 10 10 10 10 12 11 9 11 10 10 9 3 8 9 9 9 9 10 10 10 10 10 10 9 9 7 6 6 7 6 5 6 8 5 5 6 7 7 7 6 3
12 11 10 9 9 9 9 10 9 10 11 11 7 6 9 10 10 8 7 8 8 9 8 9 9 9 8 9 10 8 7 5 6 7 6 6 5 4 8 6 5 5 5 4 2 1 1
11 11 10 10 9 8 8 9 8 9 10 11 8 10 6 4 3 8 8 9 9 6 7 7 8 8 8 8 8 8 5 5 5 6 7 6 4 6 8 6 4 4 4 4 3 -0 2
11 11 10 10 9 8 8 7 8 9 9 10 7 9 6 9 7 7 7 8 8 8 6 7 7 7 8 7 7 7 5 4 5 6 4 4 4 3 3 3 3 3 4 3 3 3 1
10 11 10 9 9 8 8 7 8 8 9 9 8 7 3 4 6 7 8 7 8 6 6 7 6 7 6 7 7 6 4 4 4 3 4 2 3 2 1 2 3 2 3 2 3 3 0
10 10 10 9 9 8 8 8 7 6 8 6 5 5 7 5 5 7 7 8 7 5 5 4 6 5 6 5 4 3 2 2 3 2 2 2 2 1 0 1 1 1 -3 -1 -1 -4 -5
9 10 9 8 9 9 8 7 6 6 6 7 7 6 7 8 5 6 6 6 5 5 5 3 4 5 3 3 2 2 2 2 2 1 2 1 1 1 -1 0 -1 -2 -4 -5 -5 -7 -10
9 9 9 8 8 8 8 7 6 6 6 6 6 6 5 5 4 4 4 3 3 3 2 3 2 1 2 3 3 3 2 3 2 1 1 0 1 0 0 -1 -1 -4 -5 -5 -7 -6 -12
8 8 9 7 6 7 7 6 5 5 5 5 6 6 5 3 2 1 3 3 3 2 2 2 2 2 2 3 4 4 4 3 2 0 -1 0 -2 -1 -2 -2 -2 -5 -4 -5 -10 -7 -10
8 8 8 6 5 6 6 4 5 6 5 5 4 6 4 0 -1 -1 2 3 2 2 1 1 2 2 2 2 3 3 2 1 1 1 -0 -1 -2 -2 -2 -3 -4 -6 -4 -4 -6 -7 -8
8 8 6 5 5 3 3 2 3 4 4 5 2 3 4 -1 -1 -1 -1 1 1 2 2 1 1 1 0 2 2 1 -1 -1 -0 -1 -1 -1 -2 -3 -4 -3 -3 -7 -4 -4 -8 -8 -8
7 7 6 5 4 3 2 2 3 3 4 5 2 2 2 -1 -1 -1 -1 -1 -1 -0 -0 -1 -0 -1 -1 -1 -2 -2 -1 -2 -4 -3 -3 -3 -4 -5 -4 -5 -9 -7 -7 -8 -8 -9 -9
Height
841 840 839 838 837 835 833 830 828 826 823 821 819 817 815 813 811 810 808 806 804 802 801 799 798 798 800 803 807 805 804 803 802 801 802 802 804 806 811 810 809 812 814 813 813 814 813
842 841 840 839 837 835 832 830 828 825 823 821 819 818 815 813 812 810 809 807 804 802 801 800 800 800 801 806 807 806 805 805 804 803 803 803 806 808 812 814 815 816 816 818 816 816 815
842 841 840 838 836 834 832 829 827 825 824 822 820 818 816 814 812 810 808 806 804 803 802 801 801 801 802 810 807 807 807 807 806 806 806 808 808 809 813 816 816 816 816 815 818 817 816
842 841 840 838 836 834 831 829 828 826 824 822 821 819 817 815 813 810 808 806 805 804 803 803 803 803 810 809 808 808 808 808 808 808 808 809 808 810 812 815 824 827 830 831 819 818 818
842 841 840 838 836 834 832 830 829 827 825 823 821 819 817 814 812 810 807 805 805 804 804 803 804 803 811 810 810 809 809 809 808 808 808 808 809 818 819 827 833 839 837 833 825 821 821
841 840 839 838 837 835 834 831 829 827 825 823 821 819 817 814 811 809 806 806 805 804 804 804 805 810 811 814 811 810 809 809 809 809 811 813 822 828 835 835 841 833 833 832 832 823 821
840 839 839 838 837 835 833 831 830 828 826 824 821 819 816 813 811 808 806 806 809 810 808 815 816 815 813 812 812 811 810 810 810 813 820 820 828 831 827 828 829 831 833 834 830 824 826
838 839 838 838 837 835 834 831 830 828 825 823 821 819 817 814 811 808 807 810 815 816 817 814 814 814 813 813 814 813 812 814 814 822 819 828 828 823 823 827 828 829 832 836 834 829 831
837 837 837 837 837 835 833 831 830 828 826 823 821 819 816 814 812 811 810 814 814 815 819 817 815 815 815 815 818 817 814 815 818 819 824 827 822 820 820 825 828 832 836 835 833 833 836
835 835 836 836 836 834 833 831 829 828 827 824 821 819 817 814 816 813 814 815 815 816 832 822 818 816 815 814 818 816 815 817 819 822 824 826 823 821 824 826 830 830 831 830 832 837 845
833 834 834 834 834 833 832 830 829 827 826 825 822 820 818 816 816 816 818 816 815 816 853 823 819 816 816 818 820 818 818 816 822 822 824 821 822 824 825 823 825 830 828 831 833 839 848
831 832 832 832 832 832 831 829 828 827 825 824 823 820 819 820 820 820 818 818 818 833 847 823 820 820 820 820 820 820 822 822 825 825 828 828 827 825 824 825 826 827 829 844 855 857 868
828 829 830 830 830 830 829 828 828 827 825 823 822 821 820 822 823 822 821 821 834 847 823 823 822 822 823 822 823 827 833 839 832 830 830 829 825 826 825 826 828 829 836 854 856 865 842
825 827 828 829 828 827 827 827 827 826 825 823 822 821 821 823 823 822 822 828 829 820 824 822 822 824 826 826 828 833 835 840 848 843 848 846 837 829 832 829 827 831 832 840 831 849 840
821 824 826 827 827 826 825 825 825 824 823 822 822 821 821 823 823 823 829 849 832 825 823 826 825 827 828 829 829 832 840 847 851 853 838 843 834 836 835 832 833 836 839 843 837 856 873
816 819 822 823 825 825 824 823 823 823 822 822 821 822 823 823 823 824 836 833 827 832 831 829 825 826 829 833 834 837 838 850 853 855 856 854 848 845 840 837 841 834 841 845 849 846 857
811 814 817 820 821 823 824 822 821 821 821 821 820 825 825 823 824 831 841 837 831 834 834 831 830 830 834 833 840 841 839 852 851 853 854 855 856 844 845 852 848 847 848 852 852 854 846
806 809 812 815 818 820 821 821 820 820 820 821 821 826 823 824 833 849 840 834 834 834 835 834 835 833 834 836 839 843 840 849 853 853 853 857 863 862 849 860 862 859 856 856 858 860 884
800 803 807 810 813 816 818 819 819 819 819 821 826 829 825 824 831 839 839 836 837 835 835 834 835 836 838 836 835 841 848 854 853 853 855 857 863 875 845 859 860 861 864 868 880 884 886
797 796 800 805 810 813 815 817 818 818 819 819 826 826 830 829 837 832 834 832 833 839 839 839 838 837 838 840 842 842 854 856 856 855 851 855 865 855 838 851 866 867 867 868 874 896 872
793 794 793 800 805 809 809 814 816 816 817 820 824 825 831 829 832 834 835 835 836 835 839 840 840 839 838 842 843 845 855 859 858 855 860 862 868 869 867 868 869 867 865 865 869 867 880
789 790 791 791 798 803 807 810 814 816 814 820 823 827 834 837 832 832 832 836 834 840 841 841 842 839 842 841 841 847 854 857 855 862 863 870 866 875 876 866 867 866 862 863 861 862 873
785 785 787 787 790 798 803 807 811 814 814 816 823 825 827 838 836 834 834 829 832 838 845 846 843 843 844 847 851 854 855 857 854 859 864 868 869 879 878 875 871 869 885 876 877 891 895
782 781 782 783 786 791 800 804 807 809 812 812 816 822 826 825 836 832 833 833 836 838 842 850 848 845 855 853 856 858 860 860 859 862 860 871 873 877 885 878 889 885 890 892 891 899 910
779 779 778 780 783 787 795 799 803 805 809 812 813 816 820 829 835 837 838 842 844 845 849 850 853 855 854 855 859 859 863 861 864 865 867 869 873 880 880 890 881 890 893 897 901 896 912
774 775 777 777 780 783 790 796 801 804 807 809 811 812 814 829 842 847 841 841 844 850 854 855 855 854 854 856 854 856 854 856 865 871 874 874 882 882 892 891 887 897 890 892 905 904 906
767 768 772 777 780 782 787 793 799 802 805 808 808 810 814 832 844 846 845 842 845 846 851 856 857 857 856 857 856 862 866 868 871 871 876 882 887 885 885 894 889 897 890 891 908 909 899
761 764 768 776 782 784 784 790 797 799 805 808 808 813 814 833 845 841 844 846 847 845 849 856 859 860 862 858 858 867 875 875 875 878 875 875 882 893 896 892 889 895 892 893 901 899 899
761 764 767 771 776 783 788 792 796 800 804 806 810 813 816 824 844 844 846 847 848 848 851 856 858 859 861 869 872 873 872 880 887 884 883 885 889 894 891 892 899 896 895 897 899 900 899
Wind_Speed
6 5 6 7 7 8 9 10 10 9 10 10 11 11 11 11 12 11 12 10 8 6 5 3 0 3 2 5 2 6 8 7 5 4 8 3 4 2 3 1 2 3 2 2 2 4 0
6 6 6 7 8 9 9 10 10 11 11 10 10 10 11 12 12 11 12 11 9 7 5 4 3 2 2 3 3 7 8 7 11 7 6 7 3 1 4 2 3 2 3 5 4 4 1
5 5 5 6 8 9 10 10 10 11 10 10 11 11 12 12 11 11 10 8 6 5 5 4 4 3 6 2 4 6 8 7 10 8 3 5 3 4 1 2 3 1 2 2 5 3 1
4 5 7 8 8 9 10 10 9 9 9 10 11 11 12 13 12 13 10 6 5 5 5 5 4 3 3 3 6 8 8 4 7 7 5 5 3 4 4 2 6 5 5 3 4 2 2
4 5 6 8 9 11 11 10 9 9 9 10 11 11 12 13 12 12 9 3 3 4 3 2 3 3 1 3 4 7 8 5 5 4 4 2 4 3 4 4 4 6 1 3 5 2 3
4 5 6 8 9 11 12 12 9 8 9 9 10 11 12 13 12 12 6 2 4 2 2 2 4 4 5 3 3 5 5 5 4 3 4 7 5 3 4 4 3 2 1 1 2 4 2
5 5 6 7 8 9 10 11 9 8 9 10 11 11 12 12 10 11 3 2 5 3 10 4 1 2 2 3 3 6 6 3 2 6 2 3 5 1 2 3 3 3 1 2 3 3 2
6 5 6 7 8 10 11 12 10 9 8 9 11 12 12 12 6 10 5 6 3 2 3 2 1 1 1 2 3 8 7 3 3 2 1 5 1 2 3 5 3 2 2 4 4 2 2
8 7 6 7 9 10 11 12 11 9 9 10 11 12 12 11 3 6 11 6 4 2 4 2 1 1 2 3 2 5 4 1 3 2 3 4 3 0 2 2 2 2 4 3 4 2 2
10 9 7 7 9 10 10 11 11 10 11 11 12 12 12 8 1 3 4 3 3 2 4 3 2 2 2 1 2 2 3 2 4 1 0 3 2 2 2 1 4 2 3 3 3 2 4
12 11 8 7 8 10 11 11 11 9 10 11 12 11 10 10 2 3 1 2 2 1 4 1 2 2 2 2 1 2 6 4 3 1 3 3 2 1 2 3 4 5 3 3 2 3 2
15 13 10 8 8 9 10 11 11 9 9 10 11 11 10 5 5 4 1 1 0 6 4 1 1 2 2 3 3 3 5 8 1 2 2 4 2 1 2 1 0 1 1 5 4 3 2
15 14 11 9 7 8 9 10 11 9 8 8 8 8 7 7 3 4 3 3 5 4 1 2 2 1 1 1 2 4 4 5 1 3 3 3 1 1 2 2 1 2 4 3 4 1 5
18 16 13 11 8 8 8 10 10 9 8 8 7 4 4 5 4 3 3 5 1 2 5 1 3 2 2 1 1 3 2 2 2 2 2 2 5 2 4 1 2 1 3 4 5 3 4
21 18 16 13 11 9 8 9 9 9 8 6 5 2 3 4 2 2 5 3 5 3 1 5 2 2 1 1 0 1 1 1 0 2 3 3 4 2 4 1 1 2 3 1 2 2 3
23 21 19 15 12 11 9 9 9 8 7 6 2 2 3 3 2 3 4 5 2 3 2 2 4 2 3 1 1 0 1 2 1 2 2 1 4 2 4 1 4 2 3 3 1 4 6
26 24 21 18 14 12 11 9 8 6 5 4 1 3 2 2 2 5 3 5 2 2 3 1 1 1 2 2 5 3 3 0 2 2 1 2 1 2 1 3 1 2 1 2 1 3 4
28 25 24 20 17 14 11 9 7 4 3 1 3 1 1 2 3 1 3 2 1 1 2 0 2 4 5 4 5 4 4 2 1 4 3 0 3 4 4 0 1 2 1 2 3 3 1
27 27 26 23 19 15 11 7 4 3 0 1 2 1 3 0 3 2 2 2 1 2 2 3 4 2 1 5 3 4 3 1 1 2 5 4 1 3 3 2 1 1 2 3 4 3 6
26 29 27 25 21 16 10 5 3 1 2 4 2 2 3 3 1 5 4 3 3 0 1 0 2 2 2 3 1 3 4 1 2 1 4 1 2 5 8 1 2 2 2 3 3 2 5
27 31 31 27 25 20 15 10 5 1 4 4 2 2 1 2 3 3 3 3 3 4 1 1 1 4 5 4 2 4 3 2 2 1 3 2 4 1 2 3 2 5 7 7 10 8 6
16 33 35 32 27 23 19 17 13 5 6 2 2 2 2 1 2 5 4 5 7 1 4 3 3 2 3 3 2 4 5 4 4 2 2 3 1 2 3 4 3 7 8 10 10 7 5
15 33 36 36 28 26 20 17 15 11 12 5 2 1 0 1 2 4 3 2 4 7 1 3 1 3 3 3 3 3 3 3 4 7 6 4 3 2 4 3 4 7 2 1 1 2 3
18 32 36 37 30 26 19 17 16 15 15 8 6 4 3 3 2 3 4 2 2 2 3 2 4 1 2 4 4 4 4 3 3 3 3 5 5 3 3 3 2 1 1 2 2 2 1
17 27 37 37 33 25 20 15 13 14 16 15 7 5 3 2 1 2 4 4 5 4 3 2 3 1 2 2 2 1 2 0 0 2 1 2 3 1 2 2 5 1 2 1 4 4 3
18 21 38 35 30 24 19 16 14 15 16 18 9 6 5 5 1 4 2 2 3 3 2 2 2 1 1 1 1 3 3 0 1 2 5 4 3 3 2 2 4 4 2 3 3 4 3
24 23 37 30 25 23 20 15 14 12 16 17 8 10 7 4 2 2 2 1 3 3 3 2 1 1 2 2 2 2 2 1 2 3 3 2 1 5 5 3 5 3 0 3 4 5 2
18 29 32 25 21 21 23 21 14 12 15 14 8 9 5 3 3 2 2 2 1 2 3 3 2 1 1 2 2 2 2 2 0 1 1 4 3 3 1 2 6 2 1 3 2 1 3
16 31 29 28 24 19 18 19 15 16 17 13 7 13 15 11 4 14 17 13 1 1 3 2 1 2 2 3 0 2 1 1 1 2 1 2 3 3 4 3 2 1 1 2 2 1 3
Wind_Direction
27 27 22 18 7 7 5 0 3 9 11 15 12 11 8 3 355 351 351 347 343 340 339 335 80 138 126 46 24 357 359 356 2 17 41 26 45 85 111 71 51 60 34 352 10 320 249
25 24 21 11 4 6 4 0 2 5 6 10 8 7 4 358 356 355 354 351 353 2 4 11 51 100 66 91 17 4 8 23 30 42 39 40 96 112 87 55 76 10 3 319 348 337 122
12 9 10 5 5 5 3 3 4 4 10 8 5 3 359 355 351 356 356 358 15 28 30 43 49 83 63 117 18 9 7 22 27 32 59 44 51 71 61 61 329 98 25 2 21 339 124
355 355 355 356 359 360 1 0 1 4 8 5 3 0 357 355 353 355 353 1 28 42 49 55 45 31 74 31 26 25 20 37 24 41 58 44 34 98 70 142 19 27 40 61 333 45 34
334 344 348 352 353 355 355 356 358 2 5 5 1 357 354 355 354 358 353 22 63 61 55 45 46 70 59 16 38 15 19 12 5 33 43 64 65 79 31 82 23 19 34 2 325 28 337
308 331 341 350 352 355 354 352 356 358 359 359 356 354 352 354 352 355 5 118 78 79 27 50 59 45 16 335 344 351 10 17 41 360 21 37 44 64 36 71 215 221 98 158 260 313 32
283 314 326 337 344 346 347 348 352 354 354 353 352 350 352 353 355 358 18 141 17 0 38 78 281 129 301 322 16 19 356 8 33 49 75 18 67 230 249 166 127 120 104 264 274 313 39
268 296 316 324 337 341 344 344 345 346 346 346 347 348 350 349 3 8 38 74 105 160 72 24 67 65 5 353 33 352 6 71 54 91 44 25 106 179 129 138 131 137 175 243 271 299 133
252 271 302 316 329 338 342 343 339 337 341 346 347 347 350 349 2 26 67 92 109 118 97 353 8 41 310 24 88 326 20 11 73 90 66 148 167 324 130 136 160 219 189 215 229 336 48
245 258 279 303 317 332 338 340 339 335 338 343 346 347 353 352 47 33 56 79 104 87 72 319 333 343 339 119 53 333 13 102 39 141 218 223 315 150 109 186 138 234 194 168 185 112 229
245 255 269 292 312 328 334 335 335 334 337 342 344 346 356 20 25 48 43 99 118 95 12 286 315 314 334 81 67 15 34 17 122 151 103 258 141 121 167 212 172 212 167 210 210 211 53
246 248 259 276 299 316 328 331 331 330 337 343 345 345 353 3 22 36 39 84 39 43 265 293 328 339 9 15 14 354 25 36 57 104 11 255 286 199 192 98 165 105 143 56 52 100 275
242 245 253 263 283 300 321 327 328 324 330 339 344 348 14 12 13 358 347 351 30 131 69 195 232 42 51 279 23 42 20 17 68 34 352 318 190 344 60 164 111 114 68 325 330 350 238
241 245 246 259 269 286 309 319 322 319 328 335 340 4 36 45 9 353 9 38 234 254 202 146 131 110 229 143 6 23 41 356 12 68 123 135 311 28 353 55 159 96 164 174 263 249 269
239 242 244 251 267 279 295 311 315 316 322 333 339 36 80 33 12 28 69 61 225 219 113 147 58 125 262 247 235 60 90 239 353 343 190 144 275 321 56 350 71 137 190 49 305 132 331
237 239 243 246 259 274 286 302 310 314 321 333 349 68 62 18 58 68 80 232 271 21 35 35 222 186 222 207 165 64 193 130 154 358 352 308 310 30 316 0 36 174 125 84 24 263 259
239 237 240 243 247 261 278 290 300 307 322 323 68 49 1 98 75 53 177 232 274 31 25 39 264 273 218 209 178 213 216 131 157 155 60 140 117 273 302 22 144 62 191 48 320 186 231
250 240 237 238 241 248 265 280 292 308 316 268 92 356 33 156 66 79 180 220 359 172 19 257 126 185 188 168 191 226 223 196 289 161 153 220 144 256 238 107 349 7 288 183 169 226 59
254 253 237 234 235 240 254 272 287 310 233 91 81 278 11 167 182 221 259 230 161 176 204 183 182 197 165 197 207 188 176 304 213 168 167 187 201 338 304 78 48 148 170 110 102 103 197
248 245 242 229 232 228 235 246 245 291 173 137 104 313 333 50 0 136 161 225 214 10 199 208 167 124 133 209 234 192 178 172 18 93 93 48 176 212 251 216 122 222 209 195 153 151 251
247 245 234 232 226 228 220 200 199 184 171 154 62 245 210 233 252 152 160 140 174 231 250 196 282 219 175 205 197 214 111 122 14 337 59 124 228 244 295 262 225 234 240 224 224 235 234
271 242 227 223 229 226 221 201 216 203 141 128 143 166 18 111 112 136 176 216 202 215 145 238 226 174 192 200 197 201 144 188 193 72 123 6 308 65 274 293 309 274 248 238 250 258 260
293 237 228 221 224 226 223 229 214 205 176 119 161 85 28 15 138 125 221 201 201 140 84 40 248 127 165 172 116 124 101 92 166 162 166 161 154 85 266 339 318 275 233 108 126 97 143
301 231 226 223 225 228 220 221 216 204 186 150 149 140 161 231 187 212 156 105 131 129 135 30 23 47 75 87 93 67 57 79 121 80 118 143 136 154 275 339 266 315 173 137 177 213 213
269 233 228 224 224 217 216 217 212 186 192 194 165 161 136 152 165 153 126 116 92 66 83 92 44 178 138 108 67 9 334 224 22 29 141 53 124 193 258 221 318 299 308 142 105 281 196
266 254 226 212 208 203 206 201 187 195 200 196 183 156 109 125 138 325 121 159 137 95 66 62 38 80 67 96 156 223 245 270 202 76 39 89 69 135 127 213 264 236 137 103 107 290 237
288 243 213 197 188 196 188 172 185 185 189 182 159 158 110 109 45 1 10 149 105 102 101 120 199 63 32 115 182 207 260 287 236 189 180 118 94 202 222 240 285 204 95 154 82 251 278
276 210 190 185 183 175 171 174 163 165 174 177 131 156 116 99 43 69 53 66 68 119 145 144 110 315 83 148 175 185 166 210 231 343 203 184 170 209 103 211 270 21 246 198 204 236 284
224 193 181 179 182 181 166 161 158 170 173 163 102 124 101 82 136 100 76 57 78 12 124 53 142 118 151 83 153 92 172 96 124 232 33 236 189 191 186 222 220 330 107 87 116 298 314